Weather History for Jefferson, NC

Change the Weather History Date:

Friday, November 1, 2013

  Actual Average Record
Temperature  
Mean Temperature 62 °F -  
Max Temperature 69 °F 61 °F 78 °F (2004)
Min Temperature 54 °F 38 °F 26 °F (1990)
Degree Days  
Heating Degree Days 4    
Growing Degree Days 12 (Base 50)    
Moisture  
Dew Point 42 °F    
Average Humidity 56    
Maximum Humidity 93    
Minimum Humidity 18    
Precipitation  
Precipitation 0.01 in - - ()
Sea Level Pressure  
Sea Level Pressure 29.79 in    
Wind  
Wind Speed 11 mph (WSW)    
Max Wind Speed 23 mph    
Max Gust Speed 32 mph    
Visibility 10 miles    
Events Rain    
Averages and records for this station are not official NWS values.
T = Trace of Precipitation, MM = Missing Value Source: NWS Daily Summary

Daily Weather History Graph

Daily Weather History Graph

Search for Another Location

Airport:

Trip Planner

Search our weather history database for the weather conditions in past years. The results will help you decide how hot, cold, wet, or windy it might be!

Date:

Astronomy

Nov. 01, 2013 Rise Set
Actual Time 7:49 AM EDT 6:28 PM EDT
Civil Twilight 7:22 AM EDT 6:55 PM EDT
Nautical Twilight 6:51 AM EDT 7:26 PM EDT
Astronomical Twilight 6:21 AM EDT 7:56 PM EDT
Moon 5:43 AM EDT (11/1) 5:18 PM EDT (11/1)
Length of Visible Light 11h 33m
Length of Day
10h 39m
Waning Crescent, 4% of the Moon is Illuminated
Nov 1
Waning Crescent
Nov 3
New
Nov 10
First Quarter
Nov 17
Full
Nov 25
Last Quarter

Hourly Weather History & Observations

Time (EDT) Temp. Dew Point Humidity Pressure Visibility Wind Dir Wind Speed Gust Speed Precip Events Conditions
12:15 AM 58.1 °F 55.8 °F 92% 29.82 in 5.0 mi SSE 15.0 mph 32.2 mph N/A Rain Rain
12:35 AM 58.1 °F 55.8 °F 92% 29.81 in 7.0 mi South 18.4 mph 31.1 mph N/A Rain Rain
12:55 AM 58.1 °F 56.1 °F 93% 29.80 in 7.0 mi SSE 11.5 mph 31.1 mph N/A   Drizzle
1:15 AM 58.6 °F 56.5 °F 93% 29.83 in 7.0 mi South 12.7 mph 31.1 mph N/A Rain Rain
1:35 AM 59.0 °F 56.1 °F 90% 29.81 in 10.0 mi SSE 11.5 mph 28.8 mph N/A   Drizzle
2:35 AM 59.0 °F 55.6 °F 88% 29.79 in 10.0 mi South 15.0 mph 27.6 mph N/A   Overcast
5:35 AM 58.5 °F 54.5 °F 87% 29.75 in 10.0 mi South 11.5 mph 25.3 mph N/A   Overcast
5:55 AM 58.8 °F 54.1 °F 84% 29.75 in 10.0 mi SSE 6.9 mph 20.7 mph N/A   Overcast
6:15 AM 58.8 °F 54.3 °F 85% 29.75 in 10.0 mi South 8.1 mph 20.7 mph N/A Rain Rain
6:35 AM 58.5 °F 54.5 °F 87% 29.75 in 10.0 mi SSE 8.1 mph - N/A   Overcast
6:55 AM 58.6 °F 54.5 °F 86% 29.76 in 10.0 mi SSE 5.8 mph - N/A   Overcast
7:15 AM 59.4 °F 54.9 °F 85% 29.77 in 10.0 mi SSE 6.9 mph 21.9 mph N/A   Overcast
7:35 AM 59.0 °F 55.4 °F 88% 29.80 in 5.0 mi WSW 6.9 mph - N/A Rain Rain
7:55 AM 58.3 °F 55.6 °F 91% 29.80 in 5.0 mi WSW 9.2 mph - 0.01 in Rain Heavy Rain
8:15 AM 58.1 °F 52.5 °F 82% 29.82 in 10.0 mi WSW 9.2 mph 25.3 mph N/A   Overcast
8:35 AM 57.6 °F 48.9 °F 73% 29.82 in 10.0 mi West 15.0 mph 28.8 mph N/A   Overcast
8:55 AM 57.4 °F 48.6 °F 72% 29.83 in 10.0 mi West 17.3 mph 24.2 mph N/A   Overcast
9:15 AM 57.7 °F 48.6 °F 71% 29.83 in 10.0 mi West 20.7 mph 26.5 mph N/A   Mostly Cloudy
9:35 AM 57.9 °F 48.6 °F 71% 29.83 in 10.0 mi West 13.8 mph 27.6 mph N/A   Mostly Cloudy
9:55 AM 58.5 °F 48.0 °F 68% 29.84 in 10.0 mi West 12.7 mph 19.6 mph N/A   Scattered Clouds
10:15 AM 59.9 °F 47.3 °F 63% 29.84 in 10.0 mi West 13.8 mph 18.4 mph N/A   Scattered Clouds
10:35 AM 59.2 °F 46.2 °F 62% 29.85 in 10.0 mi SW 6.9 mph - N/A   Scattered Clouds
10:55 AM 60.3 °F 45.0 °F 57% 29.84 in 10.0 mi Calm Calm - N/A   Mostly Cloudy
11:15 AM 60.8 °F 45.0 °F 56% 29.83 in 10.0 mi West 6.9 mph 18.4 mph N/A   Mostly Cloudy
11:35 AM 62.6 °F 44.4 °F 51% 29.82 in 10.0 mi WSW 9.2 mph 20.7 mph N/A   Mostly Cloudy
11:55 AM 63.9 °F 44.6 °F 50% 29.82 in 10.0 mi West 10.4 mph - N/A   Overcast
12:15 PM 64.2 °F 44.1 °F 48% 29.82 in 10.0 mi West 10.4 mph - N/A   Mostly Cloudy
12:35 PM 64.8 °F 43.3 °F 46% 29.81 in 10.0 mi WSW 5.8 mph - N/A   Scattered Clouds
12:55 PM 65.3 °F 43.0 °F 44% 29.80 in 10.0 mi West 9.2 mph - N/A   Clear
1:15 PM 66.7 °F 41.5 °F 40% 29.79 in 10.0 mi WSW 3.5 mph - N/A   Clear
1:35 PM 67.5 °F 38.8 °F 35% 29.78 in 10.0 mi West 10.4 mph - N/A   Clear
1:55 PM 67.3 °F 39.4 °F 36% 29.77 in 10.0 mi WNW 5.8 mph - N/A   Clear
2:15 PM 67.8 °F 35.2 °F 30% 29.77 in 10.0 mi West 13.8 mph 20.7 mph N/A   Clear
2:35 PM 68.4 °F 31.5 °F 25% 29.76 in 10.0 mi West 9.2 mph 20.7 mph N/A   Clear
2:55 PM 68.5 °F 30.0 °F 24% 29.75 in 10.0 mi WSW 10.4 mph 21.9 mph N/A   Clear
3:15 PM 68.5 °F 27.1 °F 21% 29.75 in 10.0 mi WSW 8.1 mph 16.1 mph N/A   Clear
3:35 PM 68.9 °F 27.3 °F 21% 29.75 in 10.0 mi WSW 11.5 mph 24.2 mph N/A   Clear
3:55 PM 69.3 °F 24.6 °F 19% 29.75 in 10.0 mi West 10.4 mph 19.6 mph N/A   Clear
4:15 PM 68.9 °F 23.2 °F 18% 29.74 in 10.0 mi West 12.7 mph 18.4 mph N/A   Clear
6:15 PM 63.5 °F 26.1 °F 24% 29.75 in 10.0 mi WSW 3.5 mph - N/A   Clear
6:35 PM 62.6 °F 26.6 °F 26% 29.76 in 10.0 mi West 5.8 mph - N/A   Clear
6:55 PM 61.2 °F 28.4 °F 29% 29.76 in 10.0 mi West 6.9 mph - N/A   Clear
7:15 PM 60.8 °F 30.0 °F 31% 29.77 in 10.0 mi West 5.8 mph - N/A   Clear
7:35 PM 59.9 °F 31.6 °F 34% 29.78 in 10.0 mi West 9.2 mph - N/A   Clear
7:55 PM 59.5 °F 32.0 °F 35% 29.78 in 10.0 mi WNW 6.9 mph - N/A   Clear
8:15 PM 58.5 °F 33.8 °F 39% 29.79 in 10.0 mi West 8.1 mph - N/A   Clear
8:35 PM 58.3 °F 34.7 °F 41% 29.79 in 10.0 mi West 11.5 mph 16.1 mph N/A   Clear
8:55 PM 57.2 °F 35.1 °F 43% 29.79 in 10.0 mi WSW 5.8 mph - N/A   Clear
9:15 PM 57.0 °F 35.1 °F 44% 29.79 in 10.0 mi WSW 5.8 mph - N/A   Clear
9:35 PM 56.8 °F 34.5 °F 43% 29.79 in 10.0 mi West 10.4 mph 17.3 mph N/A   Clear
9:55 PM 56.1 °F 37.0 °F 49% 29.79 in 10.0 mi West 6.9 mph - N/A   Clear
10:15 PM 55.8 °F 38.8 °F 53% 29.80 in 10.0 mi West 6.9 mph - N/A   Clear
10:35 PM 55.6 °F 39.7 °F 55% 29.80 in 10.0 mi West 11.5 mph 18.4 mph N/A   Clear
10:55 PM 54.9 °F 40.3 °F 58% 29.80 in 10.0 mi WNW 16.1 mph 20.7 mph N/A   Clear
11:15 PM 54.9 °F 40.5 °F 58% 29.80 in 10.0 mi West 17.3 mph 25.3 mph N/A   Clear
11:35 PM 54.5 °F 40.5 °F 59% 29.79 in 10.0 mi West 18.4 mph 27.6 mph N/A   Clear
11:55 PM 54.5 °F 40.5 °F 59% 29.79 in 10.0 mi West 23.0 mph 31.1 mph N/A   Clear